Probability
0 0 0 0 0 0 0 0 0 0 0 0 0 0 0 0 0 0 0 0 0 0 0 0 0 0 0 0 0 0 0 0 0 0 0 0 0 0 0 0 0 0 0 0
0 0 0 0 0 0 0 0 0 0 0 0 0 0 0 0 0 0 0 0 0 0 0 0 0 0 0 0 0 0 0 0 0 0 0 0 0 0 0 0 0 0 0 0
0 0 0 0 0 0 0 0 0 0 0 0 0 0 0 0 0 0 0 0 0 0 0 0 0 0 0 0 0 0 0 0 0 0 0 0 0 0 0 0 0 0 0 0
0 0 0 0 0 0 0 0 0 0 0 0 0 0 0 0 0 0 0 0 0 0 0 0 0 0 0 0 0 0 0 0 0 0 0 0 0 0 0 0 0 0 0 0
0 0 0 0 0 0 0 0 0 0 0 0 0 0 0 0 0 0 0 0 0 0 0 0 0 0 0 0 0 0 0 0 0 0 0 0 0 0 0 0 0 0 0 0
0 0 0 0 0 0 0 0 0 0 0 0 0 0 0 0 0 0 0 0 0 0 0 0 0 0 0 0 0 0 0 0 0 0 0 0 0 0 0 0 0 0 0 0
0 0 0 0 0 0 0 0 0 0 0 0 0 0 0 0 0 0 0 0 0 0 0 0 0 0 0 0 0 0 0 0 0 0 0 0 0 0 0 0 0 0 0 0
0 0 0 0 0 0 0 0 0 0 0 0 0 0 0 0 0 0 0 0 0 0 0 0 0 0 0 0 0 0 0 0 0 0 0 0 0 0 0 0 0 0 0 0
0 0 0 0 0 0 0 0 0 0 0 0 0 0 0 0 0 0 0 0 0 0 0 0 0 0 0 0 0 0 0 0 0 0 0 0 0 0 0 0 0 0 0 0
0 0 0 0 0 0 0 0 0 0 0 0 0 0 0 0 0 0 0 0 0 0 0 0 0 0 0 0 0 0 0 0 0 0 0 0 0 0 0 0 0 0 0 0
0 0 0 0 0 0 0 0 0 0 0 0 0 0 0 0 0 0 0 0 0 0 0 0 0 0 0 0 0 0 0 0 0 0 0 0 0 0 0 0 0 0 0 0
0 0 0 0 0 0 0 0 0 0 0 0 0 0 0 0 0 0 0 0 0 0 0 0 0 0 0 0 0 0 0 0 0 0 0 0 0 0 0 0 0 0 0 0
0 0 0 0 0 0 0 0 0 0 0 0 0 0 0 0 0 0 0 0 0 0 0 0 0 0 0 0 0 0 0 0 0 0 0 0 0 0 0 0 0 0 0 0
0 0 0 0 0 0 0 0 0 0 0 0 0 0 0 0 0 0 0 0 0 0 0 0 0 0 0 0 0 0 0 0 0 0 0 0 0 0 0 0 0 0 0 0
0 0 0 0 0 0 0 0 0 0 0 0 0 0 0 0 0 0 0 0 0 0 0 0 0 0 0 0 0 0 0 0 0 0 0 0 0 0 0 0 0 0 0 0
0 0 0 0 0 0 0 0 0 0 0 0 0 0 0 0 0 0 0 0 0 0 0 0 0 0 0 0 0 0 0 0 0 0 0 0 0 0 0 0 0 0 0 0
0 0 0 0 0 0 0 0 0 0 0 0 0 0 0 0 0 0 0 0 0 0 0 0 0 0 0 0 0 0 0 0 0 0 0 0 0 0 0 0 0 0 0 0
0 0 0 0 0 0 0 0 0 0 0 0 0 0 0 0 0 0 0 0 0 0 0 0 0 0 0 0 0 0 0 0 0 0 0 0 0 0 0 0 0 0 0 0
0 0 0 0 0 0 0 0 0 0 0 0 0 0 0 0 0 0 0 0 0 0 0 0 0 0 0 0 0 0 0 0 0 0 0 0 0 0 0 0 0 0 0 0
0 0 0 0 0 0 0 0 0 0 0 0 0 0 0 0 0 0 0 0 0 0 0 0 0 0 0 0 0 0 0 0 0 0 0 0 0 0 0 0 0 0 0 0
0 0 0 0 0 0 0 0 0 0 0 0 0 0 0 0 0 0 0 0 0 0 0 0 0 0 0 0 0 0 0 0 0 0 0 0 0 0 0 0 0 0 0 0
0 0 0 0 0 0 0 0 0 0 0 0 0 0 0 0 0 0 0 0 0 0 0 0 0 0 0 0 0 0 0 0 0 0 0 0 0 0 0 0 0 0 0 0
0 0 0 0 0 0 0 0 0 0 0 0 0 0 0 0 0 0 0 0 0 0 0 0 0 0 0 0 0 0 0 0 0 0 0 0 0 0 0 0 0 0 0 0
0 0 0 0 0 0 0 0 0 0 0 0 0 0 0 0 0 0 0 0 0 0 0 0 0 0 0 0 0 0 0 0 0 0 0 0 0 0 0 0 0 0 0 0
0 0 0 0 0 0 0 0 0 0 0 0 0 0 0 0 0 0 0 0 0 0 0 0 0 0 0 0 0 0 0 0 0 0 0 0 0 0 0 0 0 0 0 0
0 0 0 0 0 0 0 0 0 0 0 0 0 0 0 0 0 0 0 0 0 0 0 0 0 0 0 0 0 0 0 0 0 0 0 0 0 0 0 0 0 0 0 0
0 0 0 0 0 0 0 0 0 0 0 0 0 0 0 0 0 0 0 0 0 0 0 0 0 0 0 0 0 0 0 0 0 0 0 0 0 0 0 0 0 0 0 0
Wind_Speed
5 5 4 7 8 8 8 8 8 9 11 12 8 7 7 6 5 4 3 3 3 3 3 2 2 2 1 2 1 1 1 1 1 1 1 0 0 0 0 0 0 0 0 0
4 4 5 8 10 11 11 10 10 11 15 11 7 5 6 5 4 4 4 4 4 4 3 3 3 3 2 2 1 1 1 2 1 1 0 0 0 1 1 1 1 2 1 1
4 3 3 8 10 11 9 8 8 12 13 7 6 6 6 5 5 5 6 5 5 5 5 4 4 3 3 3 1 1 1 1 1 1 1 1 0 1 1 1 1 1 1 1
2 1 8 10 4 7 9 10 9 9 7 7 7 7 5 4 4 6 6 5 5 4 4 3 2 2 2 2 1 2 1 1 1 1 2 1 1 1 1 1 1 1 1 1
3 4 9 9 5 5 6 8 7 8 9 8 6 4 5 4 3 5 5 4 4 3 3 3 2 2 2 2 1 2 2 2 2 2 2 2 2 2 1 1 1 1 1 1
4 4 9 9 4 2 1 7 6 5 7 6 3 4 7 4 3 4 4 3 3 2 2 2 3 2 2 2 2 3 3 3 2 2 2 2 2 1 1 1 2 2 1 1
7 7 10 9 4 1 4 7 4 4 5 4 5 7 6 5 4 4 3 3 2 2 2 3 2 1 2 2 3 2 2 1 1 1 2 2 1 1 1 2 2 2 1 1
5 7 11 5 2 5 6 4 4 4 4 5 6 6 5 5 5 4 4 3 2 2 2 2 1 2 3 3 2 1 1 1 1 1 1 1 1 1 1 2 2 1 1 0
9 10 6 4 6 5 4 5 5 5 5 5 6 7 6 6 5 5 4 3 2 2 3 3 2 1 3 2 1 1 0 0 0 0 0 0 1 2 2 2 1 1 1 1
7 10 8 7 7 6 5 7 7 5 5 5 7 7 7 6 6 5 4 3 2 2 3 3 3 2 2 1 0 1 1 1 0 0 0 0 0 1 2 2 2 2 2 1
11 11 9 9 8 8 7 6 6 6 5 6 7 8 7 7 6 6 5 3 3 3 4 4 3 2 2 1 1 1 1 1 1 1 1 0 0 0 1 1 2 3 2 2
13 11 8 8 5 5 6 7 7 7 8 6 6 8 7 7 6 5 4 3 3 4 4 4 3 3 2 1 2 2 2 2 1 1 1 1 0 1 1 1 1 1 1 1
15 12 10 10 7 6 6 7 7 7 8 8 7 6 6 6 5 4 4 4 4 4 4 4 3 3 3 2 2 3 3 2 2 1 1 1 1 1 1 1 2 2 1 1
10 8 10 9 8 7 6 6 6 6 6 6 6 5 5 5 4 4 5 4 4 3 3 3 3 4 2 2 2 3 2 2 2 2 2 2 1 1 1 1 0 1 1 1
9 9 10 7 6 5 4 4 5 6 6 5 4 4 4 5 5 5 3 2 2 3 3 3 3 4 2 2 3 3 2 2 2 2 1 1 1 1 1 1 1 0 1 2
7 6 6 7 8 7 6 5 6 8 6 6 5 5 4 4 4 3 3 2 3 4 4 3 4 4 2 2 2 2 2 2 2 2 2 2 1 1 1 1 1 1 1 1
6 7 7 7 8 8 7 7 7 7 6 6 6 5 3 3 3 3 3 3 3 4 3 4 4 3 2 3 3 2 2 2 2 2 1 2 2 2 2 2 2 1 1 2
7 8 7 7 7 7 7 6 6 6 6 6 4 3 4 4 5 5 3 2 2 3 3 3 3 3 2 2 2 2 2 2 2 2 2 1 2 2 2 2 2 2 1 2
5 6 6 7 6 6 6 6 6 6 5 4 4 4 4 4 4 3 2 2 3 4 4 3 3 2 2 3 3 2 2 2 2 2 2 2 2 2 2 2 2 2 1 1
5 5 5 6 5 5 6 6 5 5 4 3 3 3 4 4 3 3 3 4 4 4 3 2 2 2 2 2 2 2 2 3 3 2 2 2 2 2 2 2 2 2 2 2
5 5 5 6 6 5 5 5 4 5 4 4 5 5 5 4 3 3 3 4 3 2 2 3 2 2 2 2 2 2 2 2 3 3 3 2 2 2 2 2 2 2 2 3
4 5 6 5 5 5 4 4 4 4 4 4 4 4 4 3 3 3 4 4 3 2 2 2 2 2 2 2 2 2 2 2 2 2 2 3 3 3 3 3 3 3 3 3
5 5 5 5 5 5 4 3 4 4 5 5 5 5 5 4 3 3 4 3 2 3 2 2 3 3 3 2 2 2 2 2 2 3 3 3 3 3 3 3 3 3 3 3
4 4 5 4 3 3 5 4 3 3 3 3 4 4 3 3 2 3 3 3 3 3 2 3 4 4 2 2 2 2 2 2 2 2 2 2 2 3 3 3 3 3 3 4
4 4 3 3 4 4 4 3 2 2 2 2 3 3 2 3 3 2 2 3 3 3 2 3 4 3 2 2 2 2 2 2 3 2 3 3 3 3 3 3 3 3 3 4
3 3 4 4 4 3 2 2 2 2 2 2 2 2 1 1 2 2 2 2 3 3 2 2 2 2 2 2 2 2 2 2 3 3 3 3 3 3 3 4 5 4 4 4
3 3 2 3 3 2 2 2 3 3 2 2 2 2 1 1 2 2 2 2 2 2 2 2 2 2 2 2 2 2 2 2 3 3 3 3 3 3 4 4 4 4 4 4
Wind_Direction
251 258 251 253 256 243 232 227 233 248 255 267 265 265 269 271 270 269 273 282 283 281 286 291 295 295 263 255 261 225 172 176 239 263 256 219 136 109 80 43 22 5 153 171
267 261 262 270 255 244 243 238 239 252 262 266 268 264 268 265 255 253 256 257 263 270 275 272 267 267 267 258 251 213 203 219 226 225 247 302 82 89 88 72 63 66 65 69
257 287 324 264 239 233 230 223 221 240 254 275 284 275 259 250 248 246 253 253 251 252 252 257 259 256 253 254 234 200 212 230 232 211 206 219 171 120 131 126 98 94 85 97
242 51 236 245 236 225 235 244 239 246 264 265 260 262 260 240 243 263 267 269 269 268 273 277 280 280 278 269 221 202 214 234 232 223 227 211 181 178 181 153 145 132 101 92
187 231 268 283 260 212 220 252 246 249 262 268 275 285 273 266 257 260 268 271 273 273 280 287 280 278 275 262 233 213 226 235 234 222 217 205 203 205 189 156 142 124 109 100
190 212 241 251 252 241 203 264 255 244 258 268 295 278 272 287 285 281 289 294 300 310 309 284 280 278 247 241 232 240 250 253 249 229 215 215 220 213 180 155 148 127 100 95
217 233 255 256 266 120 196 249 273 253 251 252 242 245 266 287 288 278 281 291 297 289 281 274 283 262 245 242 246 269 289 284 273 254 233 218 210 177 148 136 131 126 114 66
199 225 251 242 170 196 232 262 279 277 264 260 262 271 280 283 282 285 285 286 274 272 285 287 276 247 249 256 277 305 284 267 279 287 252 191 163 158 145 145 147 151 140 110
205 225 242 224 220 234 233 259 270 268 268 264 270 274 276 276 275 276 276 277 274 268 280 291 286 251 247 274 316 319 288 252 267 277 266 199 177 165 150 150 159 176 181 204
251 256 256 260 260 258 252 252 260 263 267 266 269 274 274 274 272 269 266 258 256 252 261 277 289 285 267 280 286 219 211 210 172 138 39 22 177 172 173 181 184 189 196 212
254 264 275 264 250 254 257 258 265 271 268 265 265 270 268 271 271 268 266 257 241 238 247 255 264 270 280 271 191 208 211 200 181 171 182 184 16 255 213 224 206 206 208 200
246 245 241 258 252 248 253 258 262 269 274 270 259 265 270 268 267 264 259 253 247 248 251 257 256 259 265 255 210 190 204 207 198 192 188 177 135 24 107 150 153 185 185 187
248 258 253 264 263 252 251 257 261 260 261 268 267 261 262 264 265 258 254 248 244 248 249 252 254 258 258 245 224 206 210 211 200 193 188 188 186 180 179 94 106 94 84 84
251 260 264 259 259 262 258 261 266 266 263 260 264 264 260 259 260 250 248 249 251 250 247 244 247 258 261 240 221 215 215 210 199 196 194 193 195 207 198 183 197 338 1 20
251 244 250 262 267 268 268 271 273 273 272 271 262 257 255 253 255 258 260 258 253 248 248 244 247 261 260 225 215 210 204 202 195 188 186 189 186 194 196 184 185 241 340 1
262 261 256 258 261 266 269 265 262 268 270 267 268 263 258 254 258 262 257 238 231 243 243 239 249 259 241 211 203 206 210 201 186 178 176 176 177 183 182 182 187 209 244 287
251 260 255 258 259 260 257 252 253 259 260 257 257 259 253 247 257 260 259 253 245 250 246 242 252 256 232 208 196 198 192 188 179 178 188 186 189 192 188 189 198 215 247 260
240 245 243 244 252 258 264 262 257 256 253 254 254 242 234 231 239 250 254 256 269 277 263 245 238 230 221 207 197 192 186 186 184 186 188 193 205 197 189 194 201 213 253 276
260 257 261 260 255 250 255 257 255 253 253 243 230 235 240 242 242 242 232 228 238 256 262 242 231 211 216 213 193 188 185 184 186 190 188 192 197 191 191 199 209 221 237 262
264 263 265 269 264 249 252 257 254 253 246 225 218 228 241 244 234 225 225 241 242 241 240 229 219 216 222 222 202 184 185 189 193 195 191 191 190 195 200 208 214 223 235 245
265 268 268 267 269 264 254 250 244 249 244 217 213 224 234 241 225 211 218 252 259 227 221 219 217 222 219 209 195 184 184 189 191 189 187 188 191 201 209 216 224 231 239 247
262 264 263 263 264 272 268 251 237 238 237 229 224 220 224 237 233 235 236 237 250 228 220 221 221 216 208 198 189 185 187 188 189 187 191 194 198 208 216 221 229 236 241 246
258 257 260 258 257 267 279 264 242 233 232 228 222 216 217 225 215 218 251 243 225 230 228 224 226 220 203 183 177 180 185 191 196 199 203 206 209 213 219 226 232 235 242 249
257 257 260 263 253 254 264 265 252 242 239 241 234 223 214 221 243 238 236 239 235 234 228 225 227 220 191 173 182 190 196 201 205 205 207 211 215 220 225 229 238 243 245 251
256 259 260 254 248 250 254 258 258 249 242 250 251 243 229 222 228 233 224 226 228 227 222 226 228 218 188 187 196 203 207 211 211 208 209 214 221 227 232 235 238 244 248 252
259 258 255 252 253 254 246 236 241 243 235 252 268 255 238 230 223 228 224 223 223 219 214 216 215 206 200 203 209 214 217 220 223 223 220 223 227 232 237 241 245 248 251 254
267 265 266 269 263 248 239 233 237 243 231 231 259 261 231 222 224 227 225 224 222 217 215 216 213 208 208 213 219 224 226 227 228 229 228 230 234 237 241 245 250 252 254 256